DW2819 Weather Reports


Display with metric or nautical units.
time (UTC)temp
F
wind
direction
speed
MPH
gust
MPH
rain 1hr
in
rain 24hr
in
rain mn
in
humidity
%
barometer
mb
20260905091258 61 0 0.0 2.0 0.00 0.00 0.00 75 995.0
20260905090758 61 24 0.0 1.0 0.00 0.00 0.00 75 994.9
20260905090258 60 310 0.0 1.0 0.00 0.00 0.00 75 994.9
20260905085758 59 310 0.0 1.0 0.00 0.00 0.00 79 994.9
20260905085257 58 309 0.0 0.0 0.00 0.00 0.00 79 994.9
20260905084754 58 309 0.0 1.0 0.00 0.00 0.00 80 994.8
20260905084255 58 307 0.0 1.0 0.00 0.00 0.00 80 994.9
20260905083759 57 313 0.0 0.0 0.00 0.00 0.00 83 994.8
20260905083255 57 313 0.0 1.0 0.00 0.00 0.00 83 994.8
20260905082758 57 313 0.0 1.0 0.00 0.00 0.00 81 994.8
20260905082301 58 28 0.0 1.0 0.00 0.00 0.00 81 994.8
20260905081758 58 299 0.0 1.0 0.00 0.00 0.00 80 994.7
20260905081259 58 299 0.0 1.0 0.00 0.00 0.00 81 994.6
20260905080758 58 309 0.0 1.0 0.00 0.00 0.00 82 994.7
20260905075758 56 340 0.0 0.0 0.00 0.00 0.00 83 994.8
20260905075258 56 340 0.0 0.0 0.00 0.00 0.00 83 994.7
20260905074758 56 336 0.0 1.0 0.00 0.00 0.00 83 994.7
20260905074258 56 340 0.0 1.0 0.00 0.00 0.00 82 994.7
20260905073757 56 340 0.0 1.0 0.00 0.00 0.00 83 994.6
20260905073257 54 0 0.0 1.0 0.00 0.00 0.00 85 994.6
20260905072758 53 0 0.0 1.0 0.00 0.00 0.00 88 994.6
20260905072305 53 0 0.0 0.0 0.00 0.00 0.00 88 994.6
20260905071758 53 0 0.0 0.0 0.00 0.00 0.00 88 994.6
20260905071301 53 0 0.0 0.0 0.00 0.00 0.00 87 994.6
20260905070757 53 1 0.0 0.0 0.00 0.00 0.00 87 994.5
20260905070304 54 1 0.0 0.0 0.00 0.00 0.00 87 994.4
20260905065759 54 1 0.0 0.0 0.00 0.00 0.00 87 994.4
20260905065300 54 1 0.0 0.0 0.00 0.00 0.00 86 994.3
20260905064759 54 8 0.0 0.0 0.00 0.00 0.00 86 994.4
20260905064323 55 8 0.0 0.0 0.00 0.00 0.00 86 994.3
20260905063258 55 8 0.0 0.0 0.00 0.00 0.00 85 994.2
20260905062757 54 8 0.0 0.0 0.00 0.00 0.00 87 994.2
20260905062259 53 11 0.0 1.0 0.00 0.00 0.00 87 994.1
20260905061801 54 7 0.0 1.0 0.00 0.00 0.00 86 994.1
20260905060800 53 34 0.0 1.0 0.00 0.00 0.00 87 994.0
20260905060257 52 79 0.0 0.0 0.00 0.00 0.00 88 994.1
20260905055800 52 79 0.0 0.0 0.00 0.00 0.00 88 994.1
20260905055259 51 79 0.0 0.0 0.00 0.00 0.00 88 994.1
20260905054800 51 79 0.0 0.0 0.00 0.00 0.00 89 994.1
20260905054233 50 79 0.0 0.0 0.00 0.00 0.00 91 994.1
20260905053731 49 79 0.0 0.0 0.00 0.00 0.00 92 994.0
20260905053229 49 79 0.0 0.0 0.00 0.00 0.00 93 994.1
20260905052817 47 79 0.0 0.0 0.00 0.00 0.00 94 994.1
20260905051730 46 79 0.0 0.0 0.00 0.00 0.00 94 994.1
20260905051229 46 79 0.0 0.0 0.00 0.00 0.00 93 994.0
20260905050742 46 79 0.0 0.0 0.00 0.00 0.00 93 994.1
20260905045715 45 79 0.0 0.0 0.00 0.00 0.00 92 994.1
20260905045215 44 79 0.0 0.0 0.00 0.00 0.00 92 994.0
20260905044715 44 79 0.0 0.0 0.00 0.00 0.00 92 994.0
20260905044216 44 79 0.0 0.0 0.00 0.00 0.00 92 994.0
20260905043717 44 79 0.0 0.0 0.00 0.00 0.00 92 994.1
20260905043211 44 79 0.0 0.0 0.00 0.00 0.00 92 994.0
20260905042709 44 79 0.0 0.0 0.00 0.00 0.00 91 994.2
20260905042206 44 79 0.0 0.0 0.00 0.00 0.00 91 994.2
20260905041717 44 79 0.0 0.0 0.00 0.00 0.00 91 994.1
20260905040707 44 79 0.0 0.0 0.00 0.00 0.00 92 994.2
20260905040209 44 79 0.0 0.0 0.00 0.00 0.00 91 994.1
20260905035723 44 79 0.0 0.0 0.00 0.00 0.00 91 994.0
20260905034201 44 79 0.0 0.0 0.00 0.00 0.00 91 994.2
20260905033707 44 79 0.0 0.0 0.00 0.00 0.00 91 994.1
20260905033202 44 79 0.0 0.0 0.00 0.00 0.00 91 994.1
20260905032704 44 79 0.0 0.0 0.00 0.00 0.00 91 994.1
20260905032156 44 79 0.0 0.0 0.00 0.00 0.00 91 994.1
20260905031655 44 79 0.0 0.0 0.00 0.00 0.00 91 994.1
20260905031156 45 79 0.0 0.0 0.00 0.00 0.00 91 994.2
20260905030655 45 79 0.0 0.0 0.00 0.00 0.00 92 994.2
20260905030155 45 79 0.0 0.0 0.00 0.00 0.00 91 994.1
20260905025657 45 79 0.0 0.0 0.00 0.00 0.00 91 994.2
20260905025156 45 79 0.0 0.0 0.00 0.00 0.00 92 994.2
20260905024701 45 79 0.0 0.0 0.00 0.00 0.00 92 994.2
20260905024158 45 79 0.0 0.0 0.00 0.00 0.00 92 994.2
20260905023700 45 79 0.0 0.0 0.00 0.00 0.00 92 994.2
20260905023158 45 79 0.0 0.0 0.00 0.00 0.00 92 994.3
20260905022658 45 79 0.0 0.0 0.00 0.00 0.00 92 994.2
20260905022158 45 79 0.0 0.0 0.00 0.00 0.00 92 994.2
20260905021659 45 79 0.0 0.0 0.00 0.00 0.00 92 994.2
20260905021157 45 79 0.0 0.0 0.00 0.00 0.00 92 994.1
20260905020659 45 79 0.0 0.0 0.00 0.00 0.00 92 994.1
20260905020157 45 79 0.0 0.0 0.00 0.00 0.00 92 994.2
20260905015657 45 79 0.0 0.0 0.00 0.00 0.00 91 994.2
20260905015159 45 79 0.0 0.0 0.00 0.00 0.00 91 994.2
20260905014705 45 79 0.0 0.0 0.00 0.00 0.00 91 994.2
20260905013658 45 79 0.0 0.0 0.00 0.00 0.00 91 994.2
20260905013200 45 79 0.0 0.0 0.00 0.00 0.00 90 994.2
20260905012158 45 79 0.0 0.0 0.00 0.00 0.00 90 994.2
20260905011657 45 79 0.0 0.0 0.00 0.00 0.00 91 994.2
20260905011159 45 79 0.0 0.0 0.00 0.00 0.00 90 994.2
20260905010659 45 79 0.0 0.0 0.00 0.00 0.00 90 994.2
20260905010202 45 79 0.0 0.0 0.00 0.00 0.00 90 994.2
20260905005706 45 79 0.0 0.0 0.00 0.00 0.00 90 994.1
20260905005202 45 79 0.0 0.0 0.00 0.00 0.00 90 994.1
20260905004158 46 79 0.0 0.0 0.00 0.00 0.00 90 994.1
20260905003659 46 79 0.0 0.0 0.00 0.00 0.00 90 994.2
20260905003157 46 79 0.0 0.0 0.00 0.00 0.00 90 994.1
20260905002658 46 79 0.0 0.0 0.00 0.00 0.00 90 994.2
20260905002200 46 79 0.0 0.0 0.00 0.00 0.00 90 994.2
20260905001702 46 79 0.0 0.0 0.00 0.00 0.00 90 994.2
20260905000657 46 79 0.0 0.0 0.00 0.00 0.00 90 994.2
20260905000200 46 79 0.0 0.0 0.00 0.00 0.00 90 994.3
20260904235657 46 79 0.0 0.0 0.00 0.00 0.00 90 994.2
20260904235158 46 79 0.0 0.0 0.00 0.00 0.00 90 994.2
20260904234659 47 79 0.0 0.0 0.00 0.00 0.00 90 994.4
20260904234158 47 79 0.0 0.0 0.00 0.00 0.00 90 994.4
20260904233642 47 79 0.0 0.0 0.00 0.00 0.00 90 994.4
20260904232632 47 79 0.0 0.0 0.00 0.00 0.00 90 994.6
20260904232129 47 79 0.0 0.0 0.00 0.00 0.00 90 994.7
20260904231626 47 79 0.0 0.0 0.00 0.00 0.00 90 994.7
20260904231128 47 79 0.0 0.0 0.00 0.00 0.00 90 994.7
20260904230744 47 79 0.0 0.0 0.00 0.00 0.00 89 994.7
20260904224120 48 79 0.0 0.0 0.00 0.00 0.00 90 994.8
20260904223615 48 79 0.0 0.0 0.00 0.00 0.00 90 995.0
20260904223115 49 79 0.0 0.0 0.00 0.00 0.00 90 995.0
20260904222612 49 79 0.0 0.0 0.00 0.00 0.00 90 994.9
20260904222107 49 79 0.0 0.0 0.00 0.00 0.00 90 994.9
20260904221627 49 79 0.0 0.0 0.00 0.00 0.00 90 995.0
20260904220606 49 79 0.0 0.0 0.00 0.00 0.00 90 995.1
20260904215600 49 79 0.0 0.0 0.00 0.00 0.00 90 995.2
20260904215133 49 79 0.0 0.0 0.00 0.00 0.00 90 995.2
20260904214059 50 79 0.0 0.0 0.00 0.00 0.00 90 995.3
20260904213557 50 79 0.0 0.0 0.00 0.00 0.00 90 995.3
20260904213057 50 79 0.0 0.0 0.00 0.00 0.00 90 995.3
20260904212559 50 79 0.0 0.0 0.00 0.00 0.00 89 995.3
20260904211556 51 79 0.0 0.0 0.00 0.00 0.00 90 995.5
20260904211057 51 79 0.0 0.0 0.00 0.00 0.00 89 995.4
20260904210559 51 79 0.0 0.0 0.00 0.00 0.00 89 995.4
20260904210057 51 79 0.0 0.0 0.00 0.00 0.00 89 995.5
20260904205557 52 79 0.0 0.0 0.00 0.00 0.00 89 995.5
20260904205057 52 79 0.0 0.0 0.00 0.00 0.00 90 995.6
20260904204058 52 79 0.0 0.0 0.00 0.00 0.00 90 995.6
20260904203600 52 79 0.0 0.0 0.00 0.00 0.00 90 995.6
20260904203057 52 79 0.0 0.0 0.00 0.00 0.00 90 995.7
20260904202557 52 79 0.0 0.0 0.00 0.00 0.00 90 995.7
20260904202058 52 79 0.0 0.0 0.00 0.00 0.00 90 995.9
20260904201557 52 79 0.0 0.0 0.00 0.00 0.00 90 995.8
20260904201057 53 79 0.0 0.0 0.00 0.00 0.00 90 995.9
20260904200556 53 79 0.0 0.0 0.00 0.00 0.00 90 995.9
20260904200057 53 79 0.0 0.0 0.00 0.00 0.00 90 996.0
20260904195559 53 79 0.0 0.0 0.00 0.00 0.00 90 996.1
20260904195057 53 79 0.0 0.0 0.00 0.00 0.00 90 996.1
20260904194613 53 79 0.0 0.0 0.00 0.00 0.00 90 996.1
20260904193556 53 79 0.0 0.0 0.00 0.00 0.00 90 996.0
20260904193101 53 79 0.0 0.0 0.00 0.00 0.00 90 996.2
20260904192557 53 79 0.0 0.0 0.00 0.00 0.00 90 996.2
20260904191556 53 79 0.0 0.0 0.00 0.00 0.00 90 996.2
20260904191100 53 79 0.0 0.0 0.00 0.00 0.00 89 996.3
20260904190558 53 79 0.0 0.0 0.00 0.00 0.00 89 996.4
20260904185556 53 79 0.0 0.0 0.00 0.00 0.00 89 996.6
20260904185059 53 79 0.0 0.0 0.00 0.00 0.00 89 996.6
20260904184609 53 79 0.0 0.0 0.00 0.00 0.00 89 996.6
20260904183616 53 79 0.0 0.0 0.00 0.00 0.00 89 996.6
20260904181057 53 79 0.0 0.0 0.00 0.00 0.00 88 996.9
20260904180558 53 79 0.0 0.0 0.00 0.00 0.00 88 996.9
20260904180100 53 79 0.0 0.0 0.00 0.00 0.00 88 996.9
20260904175535 53 79 0.0 0.0 0.00 0.00 0.00 88 996.9
20260904175050 53 79 0.0 0.0 0.00 0.00 0.00 87 997.0
20260904174031 54 79 0.0 0.0 0.00 0.00 0.00 87 997.0
20260904173546 54 79 0.0 0.0 0.00 0.00 0.00 86 997.0
20260904172546 55 79 0.0 0.0 0.00 0.00 0.00 85 997.0
20260904171530 55 79 0.0 0.0 0.00 0.00 0.00 85 997.0
20260904171032 55 79 0.0 0.0 0.00 0.00 0.00 85 997.1
20260904170533 56 79 0.0 0.0 0.00 0.00 0.00 85 996.9
20260904170033 56 79 0.0 0.0 0.00 0.00 0.00 84 997.1
20260904165545 56 79 0.0 0.0 0.00 0.00 0.00 84 997.0
20260904164530 57 49 0.0 0.0 0.00 0.00 0.00 83 997.1
20260904163528 57 49 0.0 0.0 0.00 0.00 0.00 82 997.1
20260904162518 58 49 0.0 0.0 0.00 0.00 0.00 82 997.2
20260904162017 58 47 0.0 1.0 0.00 0.00 0.00 82 997.2
20260904161518 58 47 0.0 1.0 0.00 0.00 0.00 81 997.2
20260904161026 59 37 0.0 1.0 0.00 0.00 0.00 81 997.3
20260904160017 59 104 0.0 1.0 0.00 0.00 0.00 81 997.2
20260904155514 59 104 0.0 1.0 0.00 0.00 0.00 81 997.4
20260904155014 59 90 0.0 2.0 0.00 0.00 0.00 81 997.3
20260904154511 59 90 0.0 2.0 0.00 0.00 0.00 80 997.4
20260904154009 59 48 0.0 2.0 0.00 0.00 0.00 80 997.3
20260904153538 59 54 0.0 2.0 0.00 0.00 0.00 80 997.4
20260904152506 59 79 0.0 2.0 0.00 0.00 0.00 79 997.4
20260904152023 59 92 0.0 2.0 0.00 0.00 0.00 78 997.5
20260904151007 59 47 1.0 2.0 0.00 0.00 0.00 77 997.6
20260904150501 60 27 0.0 3.0 0.00 0.00 0.00 77 997.6
20260904150003 60 20 0.0 4.0 0.00 0.00 0.00 76 997.6
20260904145501 60 21 1.0 4.0 0.00 0.00 0.00 75 997.6
20260904145000 60 73 0.0 3.0 0.00 0.00 0.00 75 997.5
20260904144501 60 0 1.0 3.0 0.00 0.00 0.00 76 997.6
20260904143457 60 357 1.0 3.0 0.00 0.00 0.00 74 997.7
20260904142458 61 35 1.0 3.0 0.00 0.00 0.00 71 997.6
20260904141956 61 39 1.0 3.0 0.00 0.00 0.00 70 997.7
20260904141501 61 154 1.0 3.0 0.00 0.00 0.00 70 997.6
20260904140959 62 31 2.0 3.0 0.00 0.00 0.00 72 997.7
20260904140458 62 151 0.0 4.0 0.00 0.00 0.00 72 997.7
20260904135957 62 125 2.0 5.0 0.00 0.00 0.00 71 997.8
20260904135456 62 162 1.0 5.0 0.00 0.00 0.00 71 997.7
20260904135002 62 75 1.0 3.0 0.00 0.00 0.00 69 997.7
20260904134458 62 180 0.0 0.0 0.00 0.00 0.00 68 997.7
20260904133956 62 196 0.0 2.0 0.00 0.00 0.00 65 997.7
20260904133454 62 196 0.0 2.0 0.00 0.00 0.00 68 997.8
20260904133027 62 103 0.0 2.0 0.00 0.00 0.00 65 997.7
20260904131953 61 113 0.0 2.0 0.00 0.00 0.00 67 997.8
20260904131455 61 154 0.0 3.0 0.00 0.00 0.00 65 997.8
20260904130954 61 66 1.0 4.0 0.00 0.00 0.00 67 997.8
20260904130453 61 99 0.0 4.0 0.00 0.00 0.00 69 997.8
20260904125955 61 1 0.0 2.0 0.00 0.00 0.00 70 997.8
20260904125456 61 151 0.0 1.0 0.00 0.00 0.00 73 997.8
20260904124958 61 316 0.0 1.0 0.00 0.00 0.00 70 997.9
20260904124456 61 319 0.0 2.0 0.00 0.00 0.00 70 998.0
20260904123955 61 344 0.0 2.0 0.00 0.00 0.00 69 998.1
20260904123457 62 358 0.0 2.0 0.00 0.00 0.00 70 998.0
20260904122952 62 333 0.0 3.0 0.00 0.00 0.00 67 998.0
20260904122454 62 281 1.0 3.0 0.00 0.00 0.00 65 998.0
20260904121952 62 32 1.0 3.0 0.00 0.00 0.00 65 997.9
20260904121453 63 283 1.0 2.0 0.00 0.00 0.00 63 997.9
20260904120954 63 336 0.0 2.0 0.00 0.00 0.00 63 997.8
20260904120453 63 336 0.0 2.0 0.00 0.00 0.00 63 997.8
20260904115952 63 52 0.0 3.0 0.00 0.00 0.00 61 997.7
20260904115455 63 52 0.0 3.0 0.00 0.00 0.00 60 997.7
20260904114958 63 316 0.0 1.0 0.00 0.00 0.00 59 997.9
20260904114457 63 316 0.0 1.0 0.00 0.00 0.00 58 997.8
20260904113955 63 341 0.0 1.0 0.00 0.00 0.00 60 997.8
20260904113455 63 341 0.0 1.0 0.00 0.00 0.00 60 997.8
20260904112958 63 0 0.0 1.0 0.00 0.00 0.00 59 997.8
20260904112459 63 0 0.0 0.0 0.00 0.00 0.00 61 997.8
20260904111950 63 0 0.0 2.0 0.00 0.00 0.00 63 997.9
20260904111500 63 0 0.0 2.0 0.00 0.00 0.00 60 998.0
20260904110444 62 14 0.0 3.0 0.00 0.00 0.00 61 997.9
20260904105944 62 286 0.0 2.0 0.00 0.00 0.00 63 997.9
20260904105445 61 298 0.0 2.0 0.00 0.00 0.00 63 997.9
20260904104441 61 162 0.0 0.0 0.00 0.00 0.00 66 998.0
20260904103941 62 164 0.0 0.0 0.00 0.00 0.00 66 998.0
20260904103438 62 162 0.0 0.0 0.00 0.00 0.00 67 998.0
20260904102939 63 162 0.0 1.0 0.00 0.00 0.00 66 998.0
20260904102439 64 162 0.0 3.0 0.00 0.00 0.00 64 998.1
20260904101931 64 162 1.0 5.0 0.00 0.00 0.00 60 998.1
20260904101436 65 72 3.0 5.0 0.00 0.00 0.00 58 998.0
20260904100932 64 138 0.0 5.0 0.00 0.00 0.00 61 998.2
20260904095929 65 247 0.0 3.0 0.00 0.00 0.00 59 998.3
20260904095430 65 202 1.0 3.0 0.00 0.00 0.00 56 998.3
20260904094929 65 78 1.0 3.0 0.00 0.00 0.00 55 998.3
20260904094429 65 93 0.0 3.0 0.00 0.00 0.00 58 998.3
20260904093932 66 75 1.0 3.0 0.00 0.00 0.00 58 998.4
20260904093430 65 20 2.0 3.0 0.00 0.00 0.00 58 998.6
20260904092931 65 164 2.0 3.0 0.00 0.00 0.00 61 998.5
20260904092440 65 45 1.0 3.0 0.00 0.00 0.00 60 998.5